GW6580 Weather Reports


Display with metric or nautical units.
time (UTC)temp
F
wind
direction
speed
MPH
gust
MPH
rain 1hr
in
rain 24hr
in
rain mn
in
humidity
%
barometer
mb
20260503191014 72 183 3.0 7.0 0.00 0.03 0.00 43 1019.2
20260503190508 73 315 2.0 6.0 0.00 0.04 0.00 46 1019.1
20260503190039 72 63 2.0 6.0 0.00 0.04 0.00 47 1019.2
20260503185510 71 234 1.0 3.0 0.00 0.04 0.00 44 1019.2
20260503185008 71 295 2.0 2.0 0.00 0.04 0.00 44 1019.3
20260503184521 70 142 0.0 5.0 0.00 0.04 0.00 47 1019.4
20260503184011 70 234 1.0 5.0 0.00 0.04 0.00 48 1019.7
20260503183508 70 19 1.0 6.0 0.00 0.05 0.00 46 1019.7
20260503183024 71 291 1.0 6.0 0.00 0.06 0.00 45 1019.8
20260503182510 73 57 1.0 3.0 0.00 0.07 0.00 43 1019.8
20260503182010 73 49 1.0 3.0 0.00 0.09 0.00 46 1019.8
20260503181527 72 205 1.0 7.0 0.00 0.09 0.00 42 1019.9
20260503181010 72 280 2.0 7.0 0.00 0.09 0.00 44 1019.8
20260503180510 72 297 2.0 7.0 0.00 0.10 0.00 47 1019.9
20260503180029 72 258 0.0 7.0 0.00 0.10 0.00 43 1019.9
20260503175507 72 273 2.0 6.0 0.00 0.10 0.00 46 1019.9
20260503175013 71 189 1.0 6.0 0.00 0.11 0.00 46 1019.9
20260503174526 71 69 2.0 6.0 0.00 0.11 0.00 45 1020.0
20260503174006 70 294 1.0 8.0 0.00 0.11 0.00 47 1019.9
20260503173508 70 275 2.0 8.0 0.00 0.11 0.00 49 1020.0
20260503173024 70 265 1.0 8.0 0.00 0.12 0.00 46 1020.1
20260503172501 69 325 1.0 9.0 0.00 0.13 0.00 49 1020.2
20260503172006 70 360 1.0 9.0 0.00 0.13 0.00 45 1020.3
20260503171505 70 360 4.0 6.0 0.00 0.14 0.00 45 1020.2
20260503171003 69 326 0.0 4.0 0.00 0.16 0.00 48 1020.3
20260503170504 69 105 1.0 7.0 0.00 0.19 0.00 44 1020.3
20260503151006 65 98 3.0 7.0 0.00 0.29 0.00 55 1021.0
20260503150503 65 242 0.0 3.0 0.00 0.29 0.00 59 1020.9
20260503131007 57 105 1.0 3.0 0.00 0.56 0.00 96 1020.3
20260503130508 57 25 0.0 2.0 0.00 0.58 0.00 96 1020.4
20260503110506 46 308 0.0 0.0 0.00 0.72 0.00 94 1019.2
20260503090504 46 308 0.0 0.0 0.00 0.87 0.00 94 1017.8
20260503081543 47 308 0.0 0.0 0.00 0.92 0.00 94 1017.6
20260503081009 47 308 0.0 0.0 0.00 0.93 0.00 94 1017.6
20260503080510 47 308 0.0 0.0 0.00 0.94 0.00 94 1017.5
20260503072510 48 308 0.0 0.0 0.00 1.00 0.00 94 1017.1
20260503072009 48 308 0.0 0.0 0.00 1.00 0.00 94 1017.1
20260503071535 48 308 0.0 0.0 0.00 1.00 0.00 94 1017.1
20260503071009 49 308 0.0 0.0 0.00 1.01 0.00 94 1017.0
20260503070511 49 308 0.0 0.0 0.00 1.01 0.00 94 1017.0
20260503055008 50 308 0.0 0.0 0.00 1.04 0.00 94 1016.9
20260503054535 50 308 0.0 0.0 0.00 1.04 0.00 94 1016.9
20260503054008 50 308 0.0 0.0 0.00 1.04 0.00 94 1016.9
20260503053507 50 308 0.0 0.0 0.00 1.04 0.00 94 1016.9
20260503053019 50 308 0.0 0.0 0.00 1.04 0.00 93 1016.9
20260503052513 50 308 0.0 0.0 0.00 1.04 0.00 93 1016.9
20260503052009 50 308 0.0 0.0 0.00 1.04 0.00 93 1016.8
20260503051521 51 308 0.0 0.0 0.00 1.04 0.00 93 1016.7
20260503051009 51 308 0.0 0.0 0.00 1.04 0.00 93 1016.8
20260503050511 51 308 0.0 0.0 0.00 1.04 0.00 93 1016.8
20260503050026 51 308 0.0 0.0 0.00 1.04 0.00 93 1016.7
20260503045507 51 308 0.0 0.0 0.00 1.04 0.00 93 1016.6
20260503045007 51 308 0.0 0.0 0.00 1.04 0.00 93 1016.6
20260503044521 51 308 0.0 0.0 0.00 1.04 0.00 93 1016.6
20260503044003 52 308 0.0 0.0 0.00 1.04 0.00 93 1016.6
20260503043504 52 308 0.0 0.0 0.00 1.04 0.00 93 1016.5
20260503043014 52 308 0.0 0.0 0.00 1.04 0.00 93 1016.3
20260503042507 52 308 0.0 0.0 0.00 1.05 0.00 93 1016.2
20260503042007 52 308 0.0 0.0 0.00 1.05 0.00 93 1016.1
20260503041522 52 308 0.0 0.0 0.00 1.05 0.00 93 1016.1
20260503041007 52 308 0.0 0.0 0.00 1.05 0.00 93 1016.0
20260503040510 52 308 0.0 0.0 0.00 1.05 0.00 93 1016.1
20260503040023 53 308 0.0 0.0 0.00 1.05 0.00 93 1016.1
20260503035509 53 308 0.0 0.0 0.00 1.05 1.05 93 1015.9
20260503035014 53 308 0.0 0.0 0.00 1.05 1.05 93 1015.8
20260503034528 53 308 0.0 0.0 0.00 1.05 1.05 93 1015.8
20260503034008 53 308 0.0 0.0 0.00 1.05 1.05 93 1015.8
20260503033503 53 308 0.0 0.0 0.00 1.05 1.05 93 1015.8
20260503033012 54 308 0.0 1.0 0.00 1.05 1.05 93 1015.7
20260503032504 54 308 0.0 1.0 0.00 1.05 1.05 93 1015.7
20260503032007 54 296 0.0 2.0 0.00 1.05 1.05 93 1015.7
20260503031520 54 296 0.0 2.0 0.00 1.05 1.05 94 1015.6
20260503031008 54 296 0.0 2.0 0.00 1.05 1.05 94 1015.5
20260503030511 54 260 0.0 2.0 0.00 1.05 1.05 94 1015.4
20260503030023 55 281 0.0 2.0 0.00 1.05 1.05 94 1015.3
20260503025508 54 117 0.0 1.0 0.00 1.05 1.05 94 1015.2
20260503025009 54 98 0.0 0.0 0.00 1.05 1.05 94 1015.1
20260503024525 54 96 0.0 0.0 0.00 1.05 1.05 93 1014.9
20260503024010 55 97 0.0 0.0 0.00 1.05 1.05 93 1014.8
20260503023511 55 98 0.0 0.0 0.00 1.05 1.05 93 1014.8
20260503023030 55 99 0.0 1.0 0.00 1.05 1.05 93 1014.6
20260503022505 55 99 0.0 1.0 0.00 1.05 1.05 93 1014.5
20260503022010 55 92 0.0 2.0 0.00 1.05 1.05 93 1014.5
20260503021515 55 108 0.0 2.0 0.00 1.05 1.05 93 1014.4
20260503021008 55 108 0.0 2.0 0.00 1.05 1.05 94 1014.4
20260503020509 55 196 0.0 2.0 0.00 1.05 1.05 94 1014.3
20260503020022 55 223 0.0 0.0 0.00 1.05 1.05 93 1014.3
20260503015510 55 223 0.0 1.0 0.00 1.05 1.05 94 1014.0
20260503015009 55 223 0.0 1.0 0.00 1.05 1.05 93 1013.9
20260503014526 55 223 0.0 0.0 0.00 1.05 1.05 94 1013.8
20260503014009 55 223 0.0 1.0 0.00 1.05 1.05 93 1013.9
20260503013513 55 223 0.0 1.0 0.00 1.05 1.05 93 1013.7
20260503013035 55 223 0.0 0.0 0.00 1.05 1.05 93 1013.7
20260503012511 55 223 0.0 0.0 0.00 1.05 1.05 93 1013.7
20260503012014 55 223 0.0 2.0 0.00 1.05 1.05 93 1013.6
20260503011514 55 222 0.0 2.0 0.00 1.05 1.05 93 1013.6
20260503011005 55 87 0.0 2.0 0.00 1.05 1.05 93 1013.6
20260503010507 55 258 0.0 2.0 0.00 1.05 1.05 93 1013.6
20260503010019 55 258 0.0 2.0 0.00 1.05 1.05 93 1013.6
20260503005507 56 183 0.0 2.0 0.00 1.05 1.05 93 1013.6
20260503005008 56 188 0.0 2.0 0.00 1.05 1.05 93 1013.6
20260503004548 56 217 0.0 2.0 0.00 1.05 1.05 93 1013.6
20260503004009 56 219 0.0 2.0 0.00 1.05 1.05 94 1013.5
20260503003509 56 267 0.0 2.0 0.00 1.05 1.05 93 1013.3
20260503003024 56 232 0.0 2.0 0.00 1.05 1.05 94 1013.3
20260503002515 56 94 0.0 1.0 0.00 1.05 1.05 93 1013.2
20260503002012 56 94 0.0 1.0 0.00 1.05 1.05 93 1013.1
20260503001526 56 94 0.0 2.0 0.00 1.05 1.05 93 1013.1
20260503001014 56 94 0.0 2.0 0.00 1.05 1.05 93 1013.1
20260503000510 56 94 0.0 2.0 0.00 1.05 1.05 93 1013.0
20260503000019 56 90 0.0 2.0 0.00 1.05 1.05 93 1012.9
20260502235507 56 55 0.0 2.0 0.00 1.05 1.05 93 1012.8
20260502235006 56 61 0.0 2.0 0.00 1.05 1.05 93 1012.9
20260502234521 56 40 0.0 2.0 0.00 1.05 1.05 93 1012.8
20260502234011 56 102 0.0 2.0 0.00 1.05 1.05 93 1012.8
20260502233508 56 104 0.0 2.0 0.00 1.05 1.05 93 1012.9
20260502233024 56 137 0.0 2.0 0.00 1.05 1.05 93 1012.7
20260502232513 56 331 0.0 2.0 0.00 1.07 1.05 93 1012.5
20260502232003 56 149 0.0 2.0 0.00 1.07 1.05 93 1012.4
20260502231517 56 69 0.0 3.0 0.00 1.07 1.05 93 1012.4
20260502231004 56 99 1.0 3.0 0.00 1.07 1.05 93 1012.2
20260502230504 56 49 0.0 3.0 0.00 1.07 1.05 93 1012.3
20260502230014 56 146 0.0 2.0 0.00 1.08 1.05 93 1012.4
20260502225504 56 34 0.0 1.0 0.00 1.09 1.05 94 1012.3
20260502225008 56 34 0.0 2.0 0.00 1.09 1.05 93 1012.2
20260502224520 56 76 0.0 2.0 0.00 1.09 1.05 93 1012.2
20260502224007 56 108 0.0 3.0 0.00 1.09 1.05 93 1012.2
20260502223511 57 34 1.0 3.0 0.00 1.09 1.05 93 1012.2
20260502223026 57 176 1.0 3.0 0.00 1.09 1.05 93 1012.3
20260502222507 57 123 0.0 3.0 0.00 1.09 1.05 93 1012.2
20260502222007 57 200 1.0 3.0 0.00 1.09 1.05 93 1012.4
20260502221532 57 346 0.0 3.0 0.00 1.09 1.05 93 1012.2
20260502221012 57 63 0.0 3.0 0.00 1.09 1.05 93 1012.1
20260502220503 57 27 1.0 3.0 0.00 1.09 1.05 93 1012.1
20260502220014 57 261 0.0 4.0 0.00 1.09 1.05 93 1012.1
20260502215502 57 59 1.0 4.0 0.00 1.09 1.05 93 1012.1
20260502215004 57 338 1.0 4.0 0.00 1.09 1.05 93 1012.0
20260502214516 57 127 0.0 3.0 0.00 1.09 1.05 93 1011.9
20260502214007 57 12 1.0 3.0 0.00 1.09 1.05 93 1011.8
20260502213508 57 155 0.0 3.0 0.00 1.09 1.05 93 1011.8
20260502213022 57 27 0.0 6.0 0.00 1.09 1.05 93 1011.6
20260502212507 57 63 1.0 6.0 0.00 1.09 1.05 92 1011.3
20260502212007 57 201 1.0 4.0 0.00 1.09 1.05 93 1011.4
20260502211526 57 13 1.0 4.0 0.00 1.10 1.05 94 1011.3
20260502211008 57 360 0.0 3.0 0.00 1.11 1.05 94 1011.2
20260502210510 57 257 1.0 3.0 0.01 1.12 1.05 94 1011.3
20260502210030 57 68 0.0 3.0 0.01 1.12 1.05 94 1011.3
20260502205505 57 131 0.0 3.0 0.01 1.12 1.05 94 1011.3
20260502205005 57 40 0.0 3.0 0.01 1.13 1.05 94 1011.1
20260502204519 57 13 0.0 4.0 0.01 1.14 1.05 93 1011.1
20260502204007 57 347 1.0 4.0 0.01 1.14 1.05 93 1011.3
20260502203505 57 38 1.0 8.0 0.01 1.15 1.05 94 1011.2
20260502203020 57 158 1.0 8.0 0.01 1.15 1.05 93 1011.1
20260502202508 57 313 1.0 5.0 0.01 1.16 1.05 93 1011.2
20260502202013 57 138 1.0 9.0 0.01 1.16 1.05 94 1011.1
20260502201525 57 140 0.0 9.0 0.02 1.16 1.05 93 1010.9
20260502201014 57 68 1.0 7.0 0.03 1.16 1.05 94 1010.8
20260502200512 57 57 1.0 6.0 0.03 1.16 1.04 94 1010.9
20260502200029 57 53 0.0 6.0 0.03 1.16 1.04 93 1011.1
20260502195510 58 27 2.0 7.0 0.03 1.16 1.04 93 1011.2
20260502195011 58 9 1.0 7.0 0.03 1.16 1.04 93 1011.1
20260502194511 58 259 0.0 4.0 0.03 1.16 1.04 94 1011.1
20260502194007 58 96 1.0 6.0 0.03 1.16 1.04 94 1011.0
20260502193510 58 122 0.0 6.0 0.04 1.16 1.04 93 1010.9
20260502193020 58 318 1.0 7.0 0.05 1.16 1.04 94 1011.0
20260502192507 58 26 1.0 7.0 0.06 1.16 1.04 94 1011.1
20260502192012 58 59 1.0 4.0 0.08 1.16 1.04 93 1011.3
20260502191526 58 55 0.0 4.0 0.07 1.15 1.04 94 1011.3